User: anonymous   Login
Location: Caltech
(34.1382°N, 118.1253°W)
Time: 15:35:28
(UTC-07:00)
Language:

BREEZE M DEB (TANK) - Orbit

View from above orbital plane
View from above orbital plane
View from above satellite
View from above satellite

Ground track
Ground track

The orbit data is extracted from the following two-line orbital elements,

1 33437U 08057B   16211.19963546 +.00000450 +00000-0 +10505-3 0  9997
2 33437 049.5637 162.4773 4991007 200.8353 128.3316 05.59585898155756
Epoch (UTC): 29 July 2016 04:47:28
Eccentricity: 0.4991007
inclination: 49.5637°
perigee height: 335 km
apogee height: 13712 km
right ascension of ascending node: 162.4773°
argument of perigee: 200.8353°
revolutions per day: 5.59585898
mean anomaly at epoch: 128.3316°
orbit number at epoch: 15575

The dashed part of the orbit path shows where the satellite is in the earth's shadow,  

DLR